Location: ?????
(55.6500°N, 37.2500°E)
Time: 14:19:23
(UTC+00:00)

Cosmos 405 Rocket - Pass Details

Date: 19 May 2025
Orbit: 413 x 447 km, 81.2° (Epoch: 20 June)

Event Time Altitude Azimuth Distance (km) Brightness Sun altitude
Rises 20:02:05 0° 345° (NNW) 2,470 8.2 -12.2°
Reaches altitude 10° 20:04:11 10° 345° (NNW) 1,588 6.7 -12.3°
Maximum altitude 20:07:39 86° 258° (WSW) 453 2.3 -12.5°
Enters shadow 20:09:43 22° 169° (S) 1,013 3.6 -12.6°
